Temp
-9 -9 -9 -9 -9 -9 -9 -9 -10 -9 -10 -9 -10 -9 -9 -9 -9 -10 -9 -10 -10 -10 -11 -10 -11 -11 -11 -11 -11 -11 -11 -11 -11 -11 -10 -10 -10 -10 -10 -10 -10 -10 -10
-9 -9 -9 -9 -9 -10 -9 -10 -10 -10 -10 -10 -10 -10 -9 -10 -9 -10 -10 -10 -10 -10 -10 -10 -11 -11 -11 -11 -11 -11 -11 -11 -11 -11 -11 -10 -10 -10 -10 -10 -10 -10 -10
-10 -10 -10 -10 -10 -10 -9 -10 -10 -10 -10 -10 -10 -10 -10 -10 -10 -10 -10 -10 -10 -10 -10 -11 -11 -11 -11 -12 -12 -12 -12 -12 -11 -11 -11 -11 -11 -11 -11 -11 -10 -10 -10
-10 -10 -10 -10 -10 -10 -10 -10 -10 -10 -10 -10 -10 -10 -10 -10 -11 -10 -10 -10 -11 -11 -11 -11 -11 -11 -11 -12 -12 -12 -12 -12 -12 -12 -11 -11 -11 -11 -11 -11 -11 -10 -10
-10 -10 -10 -10 -10 -10 -10 -10 -10 -11 -11 -11 -10 -10 -10 -11 -11 -11 -11 -11 -11 -11 -11 -11 -11 -11 -11 -12 -12 -12 -12 -12 -12 -12 -12 -11 -11 -11 -11 -11 -11 -11 -10
-11 -10 -10 -10 -10 -10 -10 -11 -11 -11 -11 -11 -11 -11 -11 -11 -11 -11 -11 -11 -11 -11 -11 -11 -11 -11 -11 -12 -12 -12 -12 -12 -12 -12 -12 -12 -11 -11 -11 -11 -11 -11 -10
-12 -11 -11 -10 -10 -11 -11 -11 -11 -11 -11 -11 -11 -11 -11 -11 -11 -11 -11 -11 -11 -11 -11 -11 -11 -11 -11 -12 -12 -12 -12 -12 -12 -12 -12 -12 -11 -11 -11 -11 -11 -11 -11
-12 -11 -10 -10 -11 -11 -11 -11 -11 -11 -11 -11 -11 -11 -11 -11 -11 -11 -11 -11 -11 -11 -11 -11 -11 -11 -11 -11 -12 -12 -12 -12 -12 -12 -12 -12 -11 -11 -11 -11 -11 -11 -11
-14 -12 -11 -11 -11 -11 -11 -11 -11 -11 -11 -11 -11 -11 -11 -11 -11 -11 -11 -12 -11 -12 -12 -12 -12 -12 -12 -12 -12 -12 -12 -12 -12 -12 -12 -12 -12 -11 -11 -11 -11 -11 -11
-13 -12 -12 -12 -11 -11 -12 -12 -11 -11 -12 -12 -11 -11 -11 -11 -11 -12 -12 -12 -12 -12 -12 -12 -12 -12 -12 -12 -12 -12 -12 -12 -12 -12 -12 -12 -12 -12 -12 -12 -12 -12 -12
-13 -12 -12 -12 -11 -12 -12 -12 -12 -12 -12 -12 -11 -11 -11 -11 -12 -12 -12 -12 -12 -12 -12 -12 -12 -12 -12 -12 -12 -12 -12 -12 -12 -12 -12 -12 -12 -12 -12 -12 -12 -12 -12
-14 -13 -13 -12 -12 -12 -12 -12 -12 -12 -12 -12 -11 -12 -11 -11 -12 -12 -12 -12 -12 -12 -12 -12 -12 -12 -12 -12 -12 -12 -12 -12 -12 -12 -12 -12 -12 -12 -13 -13 -13 -13 -13
-14 -14 -13 -13 -13 -13 -14 -12 -12 -12 -12 -12 -12 -11 -11 -11 -12 -12 -12 -12 -12 -12 -12 -12 -12 -12 -12 -12 -12 -12 -12 -12 -12 -12 -12 -13 -13 -12 -13 -13 -13 -13 -14
-16 -15 -13 -13 -14 -14 -14 -13 -12 -12 -12 -12 -12 -12 -11 -12 -12 -12 -12 -12 -12 -13 -13 -12 -12 -12 -12 -12 -12 -12 -13 -13 -13 -13 -13 -13 -13 -13 -13 -13 -14 -14 -14
-16 -15 -14 -14 -14 -14 -14 -13 -13 -12 -12 -12 -12 -12 -12 -12 -12 -12 -12 -12 -12 -13 -13 -13 -12 -13 -12 -12 -12 -13 -13 -13 -13 -13 -13 -13 -13 -13 -14 -14 -15 -15 -15
-16 -16 -15 -15 -15 -14 -14 -13 -13 -12 -12 -12 -12 -12 -12 -12 -12 -12 -12 -12 -13 -13 -13 -13 -13 -13 -13 -12 -12 -13 -13 -13 -13 -13 -13 -13 -13 -14 -14 -14 -15 -15 -15
-15 -16 -16 -15 -14 -15 -15 -14 -13 -13 -13 -13 -13 -12 -12 -12 -12 -12 -12 -12 -13 -13 -13 -13 -13 -13 -13 -13 -13 -13 -13 -14 -14 -14 -14 -14 -14 -14 -15 -15 -16 -16 -16
-14 -14 -15 -16 -16 -16 -15 -15 -14 -14 -13 -13 -13 -12 -12 -13 -13 -13 -13 -13 -13 -13 -13 -13 -13 -13 -13 -13 -13 -13 -13 -14 -14 -14 -14 -14 -14 -15 -16 -16 -16 -17 -17
-14 -15 -15 -16 -17 -15 -15 -16 -15 -14 -13 -13 -13 -13 -13 -13 -13 -13 -13 -13 -13 -13 -13 -13 -13 -14 -14 -13 -13 -14 -14 -14 -15 -15 -15 -15 -15 -16 -16 -16 -17 -17 -18
-16 -17 -17 -17 -17 -16 -16 -16 -15 -14 -14 -14 -13 -13 -13 -13 -13 -13 -13 -13 -13 -13 -13 -13 -13 -13 -14 -14 -14 -14 -15 -15 -15 -16 -15 -16 -16 -16 -17 -17 -17 -18 -18
-15 -17 -17 -17 -17 -16 -16 -15 -15 -15 -14 -14 -14 -13 -14 -14 -14 -14 -14 -14 -14 -14 -14 -14 -14 -13 -14 -14 -14 -15 -15 -15 -16 -16 -15 -16 -16 -17 -17 -18 -18 -18 -18
-16 -17 -17 -17 -17 -16 -16 -15 -15 -15 -15 -14 -14 -14 -14 -14 -14 -14 -14 -14 -14 -14 -14 -14 -14 -14 -14 -14 -14 -15 -15 -15 -15 -17 -16 -16 -17 -17 -17 -17 -18 -18 -18
-16 -16 -16 -16 -17 -16 -16 -16 -16 -15 -15 -15 -14 -14 -14 -14 -14 -14 -14 -14 -14 -14 -14 -14 -14 -14 -14 -14 -15 -15 -15 -15 -15 -16 -16 -15 -17 -17 -17 -18 -18 -18 -19
-16 -16 -16 -16 -16 -16 -16 -16 -16 -16 -15 -15 -15 -14 -14 -14 -14 -14 -15 -15 -15 -14 -14 -15 -15 -15 -15 -15 -15 -16 -16 -16 -16 -17 -17 -16 -17 -17 -17 -18 -18 -19 -19
-16 -16 -16 -16 -16 -16 -16 -16 -16 -15 -16 -15 -15 -15 -15 -15 -15 -15 -15 -15 -15 -15 -15 -15 -15 -15 -15 -16 -16 -16 -16 -16 -17 -17 -17 -17 -18 -17 -17 -18 -19 -19 -19
-16 -16 -16 -16 -16 -16 -16 -16 -16 -16 -15 -15 -15 -15 -16 -15 -15 -15 -15 -15 -15 -15 -15 -15 -15 -16 -16 -16 -17 -16 -17 -17 -17 -17 -18 -17 -18 -18 -18 -19 -19 -19 -19
Height
5816 5822 5826 5829 5834 5837 5839 5843 5844 5846 5847 5848 5849 5851 5852 5852 5852 5851 5851 5851 5851 5849 5849 5849 5848 5846 5844 5843 5842 5841 5840 5839 5838 5837 5835 5834 5833 5831 5829 5828 5828 5827 5826
5811 5817 5821 5824 5828 5833 5835 5839 5840 5841 5843 5845 5846 5847 5848 5849 5849 5848 5847 5847 5848 5847 5846 5846 5845 5844 5842 5841 5840 5839 5838 5838 5836 5835 5833 5831 5830 5828 5827 5826 5825 5824 5823
5805 5811 5815 5819 5823 5828 5830 5835 5836 5837 5838 5841 5843 5843 5844 5846 5845 5845 5844 5844 5844 5844 5843 5842 5842 5841 5840 5838 5837 5836 5835 5834 5833 5832 5831 5829 5827 5825 5824 5823 5821 5820 5818
5799 5804 5809 5814 5818 5822 5826 5829 5831 5833 5834 5836 5839 5839 5842 5842 5843 5841 5842 5841 5841 5841 5840 5840 5839 5839 5837 5836 5835 5833 5831 5830 5829 5828 5827 5825 5823 5821 5820 5818 5816 5814 5812
5792 5797 5804 5808 5813 5816 5821 5823 5825 5828 5830 5832 5834 5835 5838 5839 5839 5837 5839 5838 5837 5837 5836 5837 5836 5835 5834 5832 5831 5830 5828 5826 5824 5823 5821 5820 5818 5816 5814 5811 5809 5807 5805
5785 5791 5797 5802 5807 5811 5815 5817 5820 5823 5825 5828 5830 5830 5832 5835 5834 5833 5835 5834 5833 5832 5832 5833 5832 5831 5830 5829 5827 5825 5823 5821 5819 5818 5816 5814 5812 5809 5807 5804 5802 5799 5796
5777 5784 5791 5797 5802 5805 5808 5811 5815 5818 5820 5822 5825 5825 5828 5829 5830 5829 5829 5830 5829 5828 5827 5827 5827 5827 5826 5824 5822 5820 5818 5816 5814 5812 5810 5808 5805 5801 5799 5796 5793 5790 5786
5769 5777 5785 5790 5794 5799 5803 5806 5808 5811 5814 5817 5819 5819 5823 5824 5824 5824 5824 5824 5823 5824 5823 5822 5822 5821 5820 5819 5817 5815 5812 5809 5807 5804 5802 5799 5797 5794 5791 5787 5784 5780 5777
5760 5770 5777 5782 5787 5793 5797 5799 5802 5805 5808 5812 5813 5815 5817 5817 5818 5818 5819 5818 5818 5818 5817 5816 5816 5816 5815 5813 5812 5809 5806 5803 5800 5796 5794 5792 5790 5787 5783 5779 5775 5771 5767
5754 5762 5769 5775 5780 5784 5789 5793 5796 5799 5802 5805 5807 5808 5811 5811 5811 5813 5813 5811 5812 5812 5811 5810 5810 5809 5808 5807 5805 5803 5800 5798 5794 5791 5788 5785 5781 5778 5773 5769 5764 5760 5755
5746 5753 5760 5765 5771 5776 5781 5786 5790 5792 5794 5797 5799 5801 5804 5805 5805 5806 5805 5805 5805 5805 5804 5802 5802 5801 5800 5799 5797 5796 5793 5790 5788 5785 5781 5776 5771 5766 5762 5757 5753 5748 5743
5738 5746 5751 5757 5762 5768 5772 5779 5781 5784 5788 5790 5792 5793 5797 5798 5796 5798 5798 5797 5797 5797 5796 5794 5794 5793 5792 5792 5790 5788 5785 5781 5778 5774 5769 5765 5760 5756 5751 5746 5741 5736 5731
5731 5738 5744 5750 5756 5759 5764 5769 5772 5775 5779 5781 5784 5786 5789 5790 5789 5789 5791 5790 5790 5790 5789 5787 5787 5786 5784 5783 5782 5779 5776 5771 5768 5764 5759 5755 5750 5744 5739 5735 5730 5723 5718
5718 5726 5733 5739 5743 5750 5755 5758 5762 5766 5770 5773 5776 5778 5780 5781 5780 5781 5782 5783 5782 5782 5782 5780 5779 5778 5776 5774 5772 5769 5766 5762 5758 5753 5748 5743 5737 5732 5727 5721 5716 5710 5704
5710 5720 5725 5729 5733 5741 5745 5750 5753 5757 5761 5765 5769 5770 5772 5772 5772 5773 5773 5774 5774 5774 5773 5772 5771 5769 5766 5764 5762 5758 5755 5750 5746 5741 5736 5731 5725 5719 5714 5708 5701 5695 5689
5701 5708 5711 5717 5725 5731 5736 5741 5744 5748 5751 5756 5760 5761 5762 5763 5764 5764 5764 5765 5765 5765 5763 5763 5761 5760 5757 5754 5751 5747 5743 5739 5734 5729 5724 5718 5711 5705 5698 5693 5687 5680 5672
5688 5696 5701 5708 5714 5720 5725 5729 5735 5738 5742 5745 5750 5752 5752 5754 5754 5755 5756 5756 5756 5754 5753 5752 5751 5750 5747 5744 5740 5737 5733 5728 5722 5716 5711 5704 5697 5691 5683 5677 5671 5663 5654
5679 5685 5689 5696 5702 5709 5714 5719 5726 5729 5733 5736 5739 5741 5743 5745 5745 5746 5746 5746 5746 5744 5743 5740 5739 5737 5736 5733 5729 5725 5721 5716 5711 5704 5697 5690 5683 5676 5669 5661 5654 5645 5635
5667 5673 5679 5686 5693 5700 5706 5711 5716 5720 5722 5727 5729 5731 5733 5733 5736 5736 5736 5736 5735 5733 5731 5730 5728 5726 5723 5720 5717 5713 5708 5703 5698 5692 5685 5678 5669 5662 5654 5646 5638 5629 5619
5656 5663 5670 5676 5682 5689 5696 5701 5706 5708 5712 5715 5718 5720 5721 5724 5724 5725 5725 5725 5724 5723 5721 5719 5716 5714 5711 5706 5704 5701 5696 5691 5686 5679 5672 5665 5657 5649 5641 5631 5623 5614 5602
5644 5649 5657 5665 5672 5680 5686 5691 5694 5697 5701 5704 5706 5708 5711 5711 5712 5713 5714 5712 5713 5712 5711 5707 5703 5702 5698 5695 5691 5687 5685 5680 5675 5667 5661 5654 5645 5638 5628 5619 5610 5600 5587
5635 5641 5648 5655 5659 5665 5672 5677 5681 5686 5689 5691 5694 5697 5698 5700 5701 5701 5701 5701 5701 5700 5697 5694 5691 5690 5685 5682 5678 5673 5669 5665 5665 5653 5648 5644 5632 5626 5616 5607 5597 5586 5573
5627 5632 5637 5643 5649 5654 5660 5664 5669 5673 5676 5679 5683 5684 5687 5688 5688 5690 5690 5690 5690 5687 5685 5682 5680 5676 5673 5669 5665 5660 5654 5651 5645 5638 5631 5631 5619 5613 5603 5594 5583 5571 5557
5615 5620 5626 5632 5637 5642 5646 5650 5654 5659 5664 5667 5670 5672 5674 5676 5677 5677 5677 5678 5676 5673 5672 5670 5666 5662 5658 5654 5650 5646 5641 5637 5631 5622 5612 5615 5604 5599 5592 5581 5571 5556 5541
5606 5612 5616 5621 5627 5631 5636 5640 5644 5648 5651 5655 5657 5660 5661 5663 5664 5664 5665 5664 5663 5662 5659 5656 5652 5649 5645 5640 5636 5632 5626 5621 5618 5609 5598 5596 5589 5587 5580 5573 5561 5544 5527
5595 5598 5604 5609 5613 5618 5622 5626 5631 5636 5640 5642 5645 5646 5649 5650 5650 5652 5651 5651 5650 5647 5645 5641 5639 5635 5631 5626 5622 5618 5613 5608 5600 5596 5582 5580 5572 5560 5567 5564 5549 5526 5511
Wind_Speed
45 44 41 36 33 32 29 27 25 23 22 19 19 21 21 19 16 14 12 13 14 14 15 16 16 16 18 18 18 17 15 14 13 14 15 16 16 16 16 16 17 17 17
45 46 42 38 35 34 30 28 25 24 21 19 21 20 19 16 15 13 12 13 16 16 15 16 16 15 18 20 19 17 16 17 19 19 19 19 19 19 20 20 20 21 22
49 48 44 41 37 35 31 30 26 25 21 19 21 18 15 14 13 12 13 15 16 16 16 16 15 16 18 19 21 21 20 19 21 22 22 21 21 22 23 24 25 27 28
50 49 46 43 39 36 34 32 27 25 21 19 21 15 16 13 12 12 13 15 16 16 17 17 17 19 20 20 21 22 22 23 25 26 26 27 27 27 29 30 31 33 34
51 49 48 45 40 38 37 33 30 26 23 21 20 18 17 15 14 12 14 15 16 17 17 18 19 21 23 22 21 22 24 24 27 29 30 30 32 33 35 36 37 38 39
53 52 49 45 42 40 38 35 31 28 25 24 22 19 19 19 17 16 16 16 18 19 19 20 21 23 24 23 23 23 25 27 30 32 32 33 34 36 38 40 41 42 42
53 53 50 48 44 42 41 39 32 31 28 26 24 22 22 21 21 20 20 21 21 21 22 23 23 24 25 26 26 28 28 30 31 33 35 37 38 40 43 46 46 45 45
54 51 51 49 49 45 42 38 35 34 31 29 27 24 26 22 23 23 24 24 25 24 24 25 27 27 28 29 29 30 31 31 33 36 38 40 42 43 46 47 46 46 46
53 53 54 54 48 46 44 42 37 37 34 33 30 27 28 26 25 26 28 26 28 28 26 26 28 29 32 34 35 35 34 36 38 39 40 41 42 44 45 46 46 47 49
54 55 52 52 52 49 45 44 41 39 36 35 33 32 31 30 28 30 31 28 30 30 27 28 29 30 31 33 36 38 37 38 39 39 40 41 43 46 47 48 50 51 53
56 53 55 53 52 51 49 46 44 42 40 38 36 35 34 33 31 33 33 32 32 30 29 30 30 30 31 33 35 37 38 39 41 43 45 46 48 50 51 51 53 55 57
57 59 53 53 53 52 47 51 49 47 45 41 40 39 38 36 35 36 35 36 34 32 32 31 31 32 32 33 34 37 39 42 45 47 49 50 51 52 53 54 55 58 60
55 52 54 52 48 47 51 54 53 51 50 45 44 41 39 40 38 38 39 38 35 35 35 32 33 34 34 35 38 40 43 46 48 51 52 53 55 55 55 56 59 62 61
57 58 58 55 50 51 56 56 55 54 53 49 46 43 43 43 41 41 40 40 37 36 38 35 36 36 37 39 41 44 46 48 51 53 55 57 57 57 57 61 62 62 63
59 58 57 56 56 57 57 59 54 54 51 50 47 45 44 44 43 43 43 43 40 38 39 39 39 40 40 42 45 47 49 51 54 55 57 59 59 59 61 63 63 64 66
59 59 60 52 55 58 57 56 52 51 51 49 48 46 45 45 45 45 45 46 42 42 41 41 41 43 42 45 48 49 50 52 55 58 60 60 60 63 65 64 65 66 70
75 71 60 56 59 59 60 54 54 52 51 49 48 47 46 47 46 46 47 48 45 44 44 44 44 43 45 48 50 52 53 54 57 60 61 61 63 66 65 64 66 70 73
68 69 63 66 68 60 66 60 55 52 50 49 48 46 49 47 46 48 48 49 46 45 46 46 46 45 47 50 53 54 55 57 60 61 61 63 66 67 64 66 68 71 74
66 64 66 64 60 63 62 56 54 52 49 51 50 48 49 46 48 48 49 48 47 47 47 48 48 49 50 53 54 55 56 59 60 60 62 66 68 64 64 66 69 72 74
62 54 55 57 63 60 55 56 56 50 50 50 49 51 47 49 48 48 47 48 49 48 47 50 52 52 53 55 56 56 56 60 58 61 66 66 64 63 63 67 70 72 73
67 61 59 53 49 49 49 46 48 50 56 52 51 50 51 48 49 47 47 49 49 49 48 51 56 55 56 57 57 57 59 59 57 63 67 63 62 60 63 66 69 71 72
66 60 59 61 55 52 47 44 45 49 49 49 53 55 50 50 48 47 49 50 50 50 51 54 57 58 58 60 59 60 62 61 60 64 66 60 61 61 64 66 68 68 75
66 66 62 60 59 57 53 48 49 49 49 52 53 50 50 48 49 50 51 50 50 53 54 55 59 59 59 60 61 62 61 62 65 65 66 64 62 63 66 66 65 71 78
55 70 67 65 65 62 60 60 56 54 50 51 52 53 54 52 51 51 50 50 53 55 56 58 59 59 59 61 62 61 61 63 66 64 67 65 63 64 65 63 67 74 83
48 49 49 68 73 73 71 70 66 65 63 54 52 54 52 50 52 50 52 52 55 57 57 58 59 60 62 62 61 61 64 67 65 62 65 65 63 65 63 62 67 77 86
51 51 53 51 51 54 51 51 60 60 65 61 55 49 48 50 51 52 52 55 55 58 58 60 61 63 62 60 60 63 64 65 64 64 64 66 66 68 64 61 71 82 85
Wind_Direction
218 217 217 218 219 222 222 228 228 233 235 242 252 263 271 275 277 283 289 296 303 309 318 325 326 329 333 334 337 337 329 326 326 323 321 320 317 313 310 306 302 300 299
223 218 217 217 219 223 224 229 227 231 235 246 257 263 270 268 273 279 287 293 295 303 310 317 318 320 326 326 327 328 323 323 326 325 323 320 316 313 310 307 305 303 302
223 218 218 218 220 223 224 228 226 230 236 246 255 257 261 264 272 282 289 294 296 300 307 308 313 315 318 320 322 326 321 316 320 320 319 317 314 313 311 309 308 308 307
220 217 218 219 221 222 225 226 224 228 234 241 247 248 255 260 273 286 295 295 295 299 302 304 308 314 317 316 317 320 326 319 318 318 317 317 318 318 316 315 314 311 309
221 218 219 220 220 221 225 224 223 225 226 233 243 248 257 263 272 291 298 300 297 297 300 300 303 308 313 310 312 315 316 317 318 318 319 318 319 320 321 320 318 316 313
221 219 219 220 222 222 225 226 223 226 224 230 240 248 257 264 274 284 291 299 298 299 295 294 298 301 308 308 306 308 309 312 314 315 316 315 316 318 319 319 317 314 313
217 219 219 222 223 224 224 225 223 228 226 232 240 248 256 264 273 280 289 293 299 300 295 293 293 295 301 302 301 304 306 308 311 314 315 315 315 317 318 316 315 313 312
218 219 222 222 223 225 226 224 224 227 229 235 242 248 256 262 272 279 283 290 297 300 301 296 292 291 293 296 298 301 304 306 310 312 314 315 316 316 313 312 312 311 312
213 220 223 222 222 227 227 227 226 230 232 237 243 251 256 262 269 275 280 286 293 299 303 299 296 295 293 293 295 297 301 304 307 309 310 312 312 311 309 309 311 312 312
216 220 221 222 224 225 228 229 230 232 235 239 245 251 257 264 269 273 278 285 289 296 299 300 301 299 299 300 300 301 303 305 306 307 307 308 309 310 311 313 313 314 314
218 219 222 222 224 226 229 233 233 235 237 240 245 251 257 262 267 271 276 282 286 291 295 300 301 302 302 302 302 304 305 307 306 308 308 308 311 315 314 313 312 312 312
217 221 222 225 227 228 230 236 236 239 240 242 245 250 255 261 264 268 273 278 284 288 291 297 299 301 303 305 307 307 306 305 306 308 309 311 313 313 311 310 310 310 309
219 223 225 227 228 229 231 239 239 241 242 242 245 249 254 259 262 265 270 275 281 285 289 294 297 301 304 305 305 304 305 306 308 308 309 311 311 310 309 309 309 309 308
215 219 222 224 226 232 234 240 241 242 244 245 246 249 253 257 259 264 268 273 276 280 286 291 296 300 303 303 304 304 305 307 307 308 309 310 310 310 309 309 308 307 308
215 223 226 224 225 233 234 241 242 243 245 247 247 249 253 256 259 262 266 271 274 279 284 288 292 296 298 300 303 305 305 306 307 307 308 309 309 308 309 308 306 307 309
216 220 222 225 229 233 237 241 245 247 246 246 248 249 252 255 258 261 265 270 273 277 282 286 289 292 296 299 300 302 304 304 304 306 308 308 307 308 308 306 305 308 307
221 222 223 225 229 232 233 240 242 245 245 246 248 250 253 255 257 261 265 269 272 276 282 286 288 291 295 297 299 302 303 303 304 306 306 306 306 307 307 304 307 308 308
229 233 224 227 229 234 237 233 241 243 245 247 249 251 253 255 259 261 263 268 272 276 281 285 287 290 292 295 299 301 303 302 303 304 303 304 306 307 305 307 308 308 307
233 230 230 231 229 233 237 237 243 245 247 250 250 252 253 257 259 261 264 268 272 276 280 284 286 290 292 295 298 300 300 301 302 301 302 305 306 307 308 308 308 308 309
226 222 226 231 232 233 235 241 241 241 248 248 252 252 256 257 259 262 264 268 271 275 280 283 285 288 291 294 297 298 298 301 298 299 302 304 306 308 309 308 307 309 310
229 216 218 223 227 231 234 239 244 247 249 250 251 256 255 258 260 262 264 267 272 275 279 281 283 288 291 294 296 296 299 297 295 297 303 303 307 308 307 308 309 309 309
224 215 219 218 216 220 226 236 242 242 246 250 252 254 257 258 260 263 265 268 272 276 277 279 283 287 290 293 296 297 298 296 297 296 301 303 306 309 310 309 310 309 312
223 218 224 221 224 226 227 232 237 243 246 249 251 254 257 261 264 264 267 270 273 275 277 281 283 287 291 293 295 295 294 296 298 298 301 303 308 311 312 312 312 313 316
226 225 227 230 228 229 230 229 235 239 245 248 253 259 262 262 263 266 268 270 272 274 278 281 285 288 291 292 294 294 295 297 297 301 301 305 309 312 314 315 315 316 317
230 227 236 234 234 238 237 242 246 240 243 246 250 254 258 263 263 267 269 271 275 277 280 283 286 288 290 291 292 294 298 298 299 302 303 307 309 312 315 317 317 317 319
240 237 238 241 237 237 243 245 245 252 250 246 247 253 259 264 267 267 270 272 276 279 281 283 286 286 289 290 293 296 297 298 300 301 305 309 312 314 315 317 319 320 321